Wind_Speed
16 19 22 22 21 20 18 19 22 21 18 16 17 19 22 25 25 19 17 19 19 21 26 28 30 32 35 42 48 46 41 35 36 41 43 44 45 46 45 39 35 33 29 30 35 36 38 40 40 39 38 34 30 27 23 20 17 14 14 15 16 17 18 20 20 20 19 20 26 29 27 24 22 20 19 19 20 19 19 20 19 17 18 18 18 18
20 24 26 24 22 20 18 19 21 21 20 17 18 21 22 26 29 24 19 17 19 23 27 24 25 31 32 38 47 48 46 41 35 36 38 39 40 41 43 40 34 30 27 32 38 39 41 41 40 40 37 32 28 25 21 18 15 13 14 16 17 17 17 18 19 20 18 19 24 27 25 23 21 19 17 17 17 18 18 17 16 16 17 17 17 18
25 29 27 22 20 19 19 20 22 23 23 20 20 21 23 24 26 26 21 16 19 20 23 20 23 31 33 36 45 49 50 48 37 32 32 34 36 35 38 38 33 30 30 35 40 40 41 41 39 39 35 30 26 22 19 17 16 15 15 15 15 15 16 17 18 20 19 19 23 25 24 21 19 18 17 17 18 18 17 15 15 15 15 16 16 17
28 28 22 18 17 17 18 19 21 23 23 23 22 23 25 23 21 25 21 15 21 21 17 14 18 29 33 35 45 49 50 51 41 32 28 30 34 33 34 35 32 32 34 36 38 39 40 40 40 37 33 29 26 23 22 22 19 15 13 11 11 12 15 17 18 19 20 21 24 26 25 22 20 18 19 19 18 16 15 14 13 13 14 14 15 16
31 28 23 22 22 22 23 21 18 19 21 22 24 25 26 23 21 23 22 17 21 25 20 14 15 26 32 34 45 49 47 50 47 37 30 29 33 33 32 33 33 34 35 37 38 38 40 40 38 35 32 29 27 26 25 23 18 12 10 10 9 10 13 16 18 19 22 24 25 28 28 24 21 20 20 18 15 13 12 11 11 12 13 13 15 17
32 28 25 26 26 26 27 25 21 19 20 21 22 25 24 24 23 23 25 22 20 21 23 15 11 20 31 36 44 45 43 48 49 43 35 30 31 34 33 32 34 35 35 37 38 39 40 39 36 34 32 29 27 27 25 21 16 12 11 11 11 12 13 16 18 19 22 25 27 29 29 25 22 20 17 13 12 11 11 10 11 12 12 13 15 18
31 28 27 27 27 28 27 27 24 22 22 22 22 21 19 21 24 26 28 21 13 13 16 14 8 10 20 34 44 43 41 46 48 45 40 33 31 35 35 32 34 37 37 37 39 40 40 38 36 35 32 30 28 26 23 19 16 13 13 13 13 13 13 16 18 19 21 24 28 29 27 24 20 16 14 12 12 13 13 13 13 13 13 14 16 17
27 25 24 23 21 23 25 25 24 22 23 25 22 17 15 19 23 28 27 20 16 17 15 17 14 9 15 31 40 41 41 42 44 47 43 37 33 34 35 32 32 36 38 39 40 42 41 38 36 34 32 29 26 24 21 19 17 15 15 15 14 14 14 16 18 18 19 24 28 28 26 21 17 16 15 14 14 14 14 14 13 14 14 15 16 16
25 24 23 21 17 17 19 19 18 20 24 24 18 13 15 17 19 26 25 22 22 19 18 21 14 7 14 28 33 34 39 42 42 47 46 40 35 33 35 33 31 34 37 39 39 40 41 38 34 31 29 27 24 22 20 18 16 16 17 17 16 15 15 17 19 18 18 23 27 27 24 20 19 18 17 15 14 14 14 13 14 15 15 16 16 15
23 22 23 24 21 18 16 13 12 17 22 20 13 12 15 15 16 20 20 21 19 12 17 25 17 7 10 23 31 29 33 43 45 45 44 43 36 32 36 35 31 33 37 38 38 39 39 35 31 29 27 25 23 21 18 16 15 17 18 18 17 16 16 18 19 17 18 23 26 25 22 21 20 18 16 15 13 13 13 14 15 15 15 16 16 15
22 22 24 26 25 20 17 14 11 14 17 16 13 12 14 15 17 16 16 16 11 7 18 27 21 11 6 17 33 32 31 37 42 42 40 42 38 31 35 37 33 33 36 38 38 38 36 32 29 28 26 25 23 20 18 16 16 18 19 19 18 16 17 18 19 18 18 23 25 24 22 21 20 17 15 13 11 11 13 14 15 15 16 16 17 17
20 21 22 23 22 18 17 16 15 14 16 16 15 13 12 11 12 10 10 11 5 5 17 22 20 16 10 15 25 29 29 29 33 40 40 40 38 33 34 36 33 33 35 36 35 34 33 31 31 28 26 25 23 21 18 17 18 19 19 19 18 16 17 19 19 18 20 23 23 23 23 21 19 17 15 12 11 12 13 15 16 16 17 17 17 18
19 20 17 16 16 16 17 17 17 17 18 19 18 16 10 4 5 4 3 5 4 8 15 13 12 15 16 21 22 22 26 26 25 31 38 41 38 34 35 34 32 32 34 35 35 34 33 32 30 28 28 27 24 21 19 20 21 20 20 20 18 16 16 18 19 19 21 23 22 23 22 20 18 16 14 12 12 13 14 16 17 18 18 18 18 18
16 15 10 10 13 14 17 19 19 18 19 21 20 19 12 3 3 5 3 2 4 13 18 13 8 8 10 18 22 23 25 25 23 20 25 36 39 36 35 34 33 32 33 35 36 36 35 33 31 30 29 26 23 22 21 22 23 21 20 21 19 16 16 19 19 19 22 23 22 22 21 19 18 17 14 12 12 12 14 17 18 18 18 18 18 18
8 7 5 5 9 11 18 21 19 17 17 20 19 18 17 11 4 4 3 2 3 7 14 13 7 3 4 7 15 23 24 22 22 19 18 25 35 38 37 36 36 35 35 35 36 36 34 33 32 32 30 27 25 25 23 24 24 22 21 22 20 16 16 19 20 20 22 23 22 22 20 19 19 17 14 12 12 12 14 16 18 18 17 18 18 19
7 7 5 4 6 9 15 17 17 16 14 15 16 18 21 19 9 1 2 8 5 3 6 9 7 5 4 3 6 15 23 24 23 22 21 20 27 36 40 40 39 38 38 38 37 36 34 34 34 33 31 29 28 27 24 25 25 24 23 22 19 16 15 17 19 21 22 23 22 21 21 20 19 16 14 12 11 12 14 16 17 18 18 18 19 19
4 6 5 4 8 9 12 12 14 18 13 9 15 22 22 20 14 4 5 10 4 3 3 6 9 11 5 1 3 9 17 24 25 25 26 24 24 30 38 42 41 40 39 39 38 36 35 36 35 35 34 32 31 29 26 25 25 25 24 22 19 16 16 17 19 22 24 24 22 22 22 21 18 15 13 12 11 12 13 15 17 18 19 19 19 19
5 8 6 5 8 10 12 11 12 17 16 11 14 18 16 16 16 9 4 6 1 4 3 5 9 12 7 1 5 10 13 18 22 25 27 28 29 32 38 41 42 40 40 40 40 39 39 39 38 38 36 33 31 29 26 25 25 25 25 22 18 17 17 17 18 23 25 24 23 23 22 21 18 15 13 12 11 12 14 15 17 18 19 19 18 17
6 7 4 4 7 11 12 12 11 13 16 13 11 14 14 11 11 10 5 3 2 3 2 3 5 7 10 8 6 10 15 17 21 24 25 28 32 37 42 43 41 39 39 41 42 41 41 42 42 40 37 34 32 30 27 26 26 27 26 22 19 18 17 17 19 24 26 25 25 24 23 21 18 16 14 12 11 12 14 15 16 18 18 18 18 17
6 5 2 2 6 11 11 12 11 9 12 11 8 15 19 13 7 8 8 5 1 2 0 1 4 3 5 10 10 10 15 17 21 25 26 28 30 33 40 43 41 38 37 38 39 39 41 43 44 42 38 35 34 31 28 28 29 28 25 22 18 18 18 19 21 25 27 27 26 25 23 22 19 16 14 12 12 12 14 15 16 17 17 17 18 17
8 6 5 6 3 9 10 12 11 7 11 13 12 17 21 17 9 7 9 7 3 1 1 2 4 2 6 3 11 14 18 20 21 24 27 30 32 32 34 36 35 34 33 35 36 36 38 40 41 41 38 36 34 31 29 29 30 28 25 21 18 17 19 21 24 27 27 28 27 25 24 21 18 16 14 13 12 13 15 16 16 17 17 17 18 15
8 7 9 10 1 6 7 10 8 6 13 15 13 16 20 19 12 5 2 4 4 2 1 2 2 3 10 4 7 12 19 25 26 25 26 29 33 34 34 32 30 28 28 30 34 36 37 37 37 38 37 35 33 31 30 30 30 27 24 20 16 16 18 22 26 28 28 28 27 25 23 21 19 16 14 14 13 14 15 16 16 17 16 17 16 14
7 8 11 10 3 2 4 6 7 11 15 13 8 6 11 16 13 5 1 5 10 6 2 3 2 2 12 12 2 6 12 19 23 24 25 29 31 33 32 30 27 26 26 26 29 34 36 36 37 38 36 33 31 30 29 29 27 25 23 19 15 14 17 22 26 27 27 27 25 24 23 21 19 16 15 15 14 15 16 16 16 16 16 16 14 13
6 8 9 5 2 1 3 5 8 13 15 11 5 5 7 13 12 7 1 8 10 5 5 5 2 1 10 14 7 0 5 11 16 19 23 28 31 31 29 27 24 24 25 25 26 30 35 37 38 37 34 31 30 29 28 28 27 25 23 19 15 14 15 21 24 25 26 25 24 23 22 21 19 17 16 16 15 16 16 16 16 16 16 16 13 13
4 6 6 1 4 2 1 4 7 11 14 8 5 6 5 11 13 8 5 9 5 4 7 4 2 2 10 13 10 5 2 9 12 15 20 26 29 29 27 25 23 23 25 26 27 30 35 38 38 35 32 30 29 28 28 28 27 25 23 19 16 15 16 20 22 22 23 23 22 21 20 20 19 18 17 16 16 16 17 17 17 16 15 15 15 16
5 6 4 1 3 2 1 3 5 9 14 6 4 4 4 10 13 4 7 6 1 5 9 4 4 10 17 13 7 4 4 9 13 17 21 24 27 26 25 24 25 25 25 25 28 32 34 36 35 33 31 29 28 28 27 27 26 25 23 20 17 17 17 20 21 21 21 20 20 20 19 20 19 18 17 16 16 17 17 17 17 16 15 15 17 18
7 5 1 3 5 6 7 7 7 10 13 5 4 3 5 13 11 3 8 5 4 7 9 8 10 17 21 16 9 4 5 7 11 18 22 24 25 24 24 24 25 26 24 24 28 31 33 35 34 32 30 29 27 27 25 25 25 25 24 20 17 17 18 20 20 20 20 20 20 20 20 20 19 18 18 17 17 17 17 18 17 17 15 14 16 17
4 3 3 4 7 10 11 11 11 11 12 5 3 2 6 14 8 8 9 5 6 5 6 12 14 16 19 19 15 9 6 4 6 15 22 25 26 25 25 25 25 25 24 24 28 31 32 34 33 31 30 29 27 26 26 25 25 26 24 19 17 17 19 20 19 18 18 20 21 20 20 19 19 19 19 18 18 18 18 18 17 17 16 14 16 17
2 3 4 5 9 10 10 10 10 9 9 5 4 3 6 12 3 10 8 7 9 6 7 13 14 14 17 17 16 14 11 8 2 9 18 23 25 26 25 25 24 23 22 23 26 30 32 32 31 29 28 28 26 25 26 26 27 28 25 20 17 16 17 18 19 18 18 19 20 20 19 19 19 19 19 19 18 18 18 18 17 17 16 15 15 16
4 4 4 5 10 11 9 7 7 7 8 6 6 5 7 9 2 9 7 8 11 9 10 11 11 13 15 15 16 17 15 12 7 3 14 21 25 26 25 23 21 19 19 20 22 26 30 30 29 28 27 26 24 23 24 25 26 28 25 19 17 16 15 16 19 20 20 21 21 20 19 19 20 20 20 20 19 18 19 18 17 17 17 15 15 16
5 5 5 8 13 11 7 6 6 6 8 8 6 5 5 5 2 7 7 8 11 11 11 10 11 13 13 12 14 16 14 13 8 4 14 21 25 26 24 21 19 17 17 18 19 23 28 30 29 28 27 24 22 21 21 22 24 27 25 19 17 15 15 16 18 19 20 21 22 21 20 20 20 20 21 22 20 19 19 18 17 17 17 16 15 15
6 5 6 10 13 10 7 8 7 7 7 7 7 6 4 2 3 6 7 10 12 12 12 12 14 16 15 12 11 12 12 12 8 8 15 20 24 25 22 20 19 19 19 18 18 19 23 27 27 26 25 24 23 22 22 22 24 26 24 20 16 14 15 17 17 17 18 20 21 21 21 20 20 21 22 22 21 20 19 18 17 17 16 16 16 15
11 10 6 10 11 10 9 9 8 7 5 4 5 5 5 4 3 7 9 12 13 12 13 14 14 16 15 12 10 8 8 9 9 10 15 19 22 22 22 20 20 20 18 17 17 19 20 22 23 24 24 25 25 24 24 25 25 26 25 21 17 15 15 16 17 18 18 18 19 20 20 20 20 20 21 21 20 20 19 18 17 17 16 16 16 16
13 12 8 8 8 8 11 11 9 6 2 2 5 4 5 6 6 9 11 12 11 11 11 10 11 14 14 11 9 8 8 9 10 9 12 16 17 18 20 21 21 20 18 17 17 17 17 18 19 20 22 23 24 24 24 25 25 25 25 23 19 17 16 16 16 17 17 18 19 19 20 20 21 22 22 21 20 19 18 18 17 17 16 16 17 17
14 14 10 8 8 10 13 11 6 2 0 4 6 5 6 7 7 9 10 11 9 10 10 8 9 14 14 11 9 6 6 7 5 5 7 11 13 14 16 18 19 19 20 20 18 17 17 16 16 16 18 22 23 23 23 23 22 21 23 24 22 20 18 18 17 17 18 19 20 19 18 19 20 22 22 20 20 19 18 18 17 16 16 17 17 16
12 12 11 9 9 9 9 6 3 2 2 5 8 7 7 6 5 5 7 8 8 10 13 11 11 14 14 11 7 5 4 3 1 3 7 10 11 11 11 12 13 15 18 20 19 18 17 15 13 13 17 21 23 23 23 23 21 20 20 22 22 22 22 21 20 20 21 21 21 18 17 18 19 20 21 20 20 19 18 17 16 16 17 17 17 15
8 9 10 10 8 7 7 7 7 5 3 4 7 8 6 4 5 6 6 7 8 11 15 14 13 14 14 10 6 4 3 2 4 4 5 10 12 11 11 11 10 11 14 16 18 18 17 16 15 14 17 20 22 23 24 24 24 22 22 23 25 26 26 25 24 23 23 22 20 17 16 18 19 20 20 20 20 19 18 17 17 17 18 18 16 14
7 8 8 9 8 8 8 7 5 4 2 2 7 7 5 4 7 9 7 6 9 13 16 15 14 15 14 10 7 5 2 5 9 9 9 11 13 12 11 11 11 11 12 13 15 16 16 17 17 17 18 20 21 22 22 23 23 23 22 24 26 27 27 26 25 24 23 21 18 17 17 19 19 19 19 19 19 19 18 18 17 18 18 17 16 14
10 9 8 8 7 6 4 3 2 3 2 2 7 8 6 5 8 9 6 5 10 14 15 15 15 16 15 11 9 7 3 2 8 14 16 15 15 14 13 12 11 11 11 12 13 13 14 15 15 17 18 20 21 22 23 23 22 22 21 20 22 24 25 24 23 21 21 21 19 18 18 18 18 19 19 19 19 19 18 17 17 17 18 17 16 14
9 8 8 6 4 3 3 4 3 4 5 5 7 9 9 8 8 8 4 5 11 13 13 14 15 16 16 12 10 10 5 3 6 13 15 14 14 14 13 13 12 11 10 10 10 11 12 12 14 15 16 18 19 20 22 22 22 21 19 17 17 20 22 22 22 22 24 24 21 18 18 19 19 19 20 20 20 19 18 17 17 17 17 17 15 14
8 8 8 5 4 4 4 4 5 6 8 9 10 11 11 8 7 6 4 4 10 10 11 13 14 14 15 14 11 9 6 4 5 8 10 11 12 12 12 12 11 11 11 10 10 10 11 12 13 14 15 16 17 17 18 19 20 20 19 18 16 17 20 22 24 26 27 24 20 19 20 20 20 20 20 21 21 19 18 17 16 16 16 16 15 14
6 7 8 6 4 3 4 5 7 7 8 8 8 9 9 7 5 5 4 4 8 9 10 12 13 13 13 13 11 7 4 4 5 6 7 9 10 11 12 12 11 10 11 10 10 11 11 12 13 14 15 16 16 17 16 17 19 19 19 19 17 18 21 24 26 27 25 21 18 20 21 21 20 19 20 20 20 19 18 17 16 15 15 15 14 13
6 5 8 7 5 3 4 5 5 4 6 9 9 7 7 6 3 3 2 3 6 9 10 10 10 10 10 9 7 4 4 5 5 6 7 8 8 9 11 11 11 11 11 11 12 12 12 12 12 14 14 15 16 16 17 18 19 19 20 20 20 21 22 23 24 23 20 17 18 19 20 20 19 19 20 21 20 20 19 17 16 16 15 14 14 13
8 7 8 7 5 4 4 4 3 3 8 9 8 7 7 4 1 2 1 3 6 8 9 7 8 9 8 6 5 4 5 6 6 8 9 8 8 9 10 11 11 11 11 12 14 13 13 13 13 14 15 15 16 17 17 18 17 17 18 20 21 21 21 20 19 17 15 15 17 18 19 20 22 22 22 22 21 20 19 18 17 16 15 14 13 13
9 8 8 7 7 5 6 6 4 5 8 8 6 6 7 5 1 2 2 4 6 8 9 8 8 8 7 6 7 6 6 5 7 9 10 11 12 11 11 10 10 11 12 12 13 14 14 14 14 15 15 15 16 17 17 16 14 14 16 18 20 21 21 18 16 14 13 14 16 17 19 22 25 25 24 23 22 20 18 17 16 14 12 12 11 11
8 7 8 9 8 8 8 6 4 4 6 6 5 5 5 4 1 1 2 5 8 10 10 9 9 8 7 7 7 7 6 5 5 7 8 11 15 16 14 13 12 12 13 12 11 12 12 12 14 16 17 15 15 15 15 15 15 16 17 18 20 21 20 18 16 15 16 18 18 18 20 24 25 25 24 22 20 18 17 16 15 12 11 10 10 10
9 7 8 8 8 8 8 7 5 5 5 6 5 4 4 4 4 3 4 7 10 11 11 12 13 12 9 8 7 6 7 7 6 6 6 9 13 15 16 16 17 16 15 14 13 11 10 10 12 14 15 13 11 11 13 14 15 17 18 18 20 20 20 19 18 18 20 19 17 16 19 21 23 24 23 20 18 16 15 14 12 11 10 10 11 12
7 6 7 7 7 11 11 8 6 4 5 7 7 6 6 5 5 6 6 7 9 12 12 11 12 13 12 11 9 11 14 14 10 8 9 11 14 14 14 14 16 16 15 14 13 12 10 10 10 10 11 10 9 10 12 13 15 16 17 18 20 20 19 20 20 19 17 13 11 11 13 15 19 22 21 18 16 14 13 12 11 10 10 11 13 14
9 8 9 8 10 14 13 7 4 5 5 7 7 6 6 6 6 7 8 8 10 12 12 10 11 13 14 13 14 16 18 18 16 14 12 13 14 15 13 12 11 11 11 11 11 10 9 9 9 8 8 8 9 10 12 13 13 14 15 17 19 19 17 17 15 14 13 12 12 12 12 14 17 19 18 16 15 14 13 11 10 9 10 12 13 14
19 17 17 16 16 17 15 10 9 10 13 14 10 4 4 6 7 9 10 10 11 11 10 10 13 15 17 17 17 17 16 15 14 14 13 12 13 13 14 12 9 8 8 8 8 7 7 7 8 9 7 7 8 9 10 10 10 11 13 15 16 17 16 12 9 10 13 14 14 14 15 15 15 14 13 13 12 11 10 9 8 8 9 10 12 11
22 23 24 24 24 22 19 16 14 13 15 17 16 10 5 7 8 10 10 12 14 12 10 11 16 19 21 20 20 19 16 14 12 10 9 9 9 10 12 13 11 9 8 8 8 7 6 7 8 8 7 7 8 8 7 6 6 7 8 9 11 12 12 10 9 10 11 11 12 13 15 16 14 11 9 8 7 7 7 7 7 8 9 10 11 12
Wind_Direction
260 255 251 254 262 269 274 273 271 272 275 278 278 272 269 274 271 257 249 237 231 248 244 235 240 242 244 244 235 226 222 224 224 225 229 231 231 228 225 226 227 227 227 214 203 196 188 188 195 199 202 204 204 206 212 219 229 242 256 268 272 271 267 263 256 245 243 235 221 216 218 217 215 215 216 215 215 213 210 210 213 214 218 221 224 230
257 253 254 262 270 277 283 279 272 268 265 266 273 276 270 269 270 263 256 239 224 245 253 244 244 240 240 243 235 228 225 222 218 219 223 225 227 228 227 227 226 227 220 201 192 189 187 190 196 199 201 203 204 208 213 221 234 248 261 270 269 262 253 251 250 243 241 236 222 216 218 217 215 215 216 212 206 204 205 209 215 217 220 222 224 230
253 254 262 271 277 279 281 276 268 264 263 262 263 271 272 267 268 264 258 241 222 245 264 253 245 240 237 240 235 229 227 222 216 214 216 218 220 224 226 225 224 224 212 195 189 188 189 193 196 199 201 202 204 207 214 223 233 245 257 261 258 252 244 244 246 240 237 231 219 215 217 215 213 212 207 201 199 202 207 211 216 219 222 224 225 231
252 261 274 279 279 278 278 274 267 262 258 259 260 263 268 264 265 262 253 233 223 241 270 259 248 243 235 237 235 229 227 226 219 214 212 211 214 217 219 222 221 218 209 196 192 192 192 195 196 198 199 200 202 205 212 221 229 245 254 250 254 253 245 242 243 239 233 225 215 213 214 209 205 202 198 199 203 209 212 213 215 219 223 224 226 232
260 271 279 277 277 275 276 273 262 258 256 255 255 257 263 260 257 258 251 245 239 240 251 261 266 253 237 234 233 228 229 230 223 217 214 207 207 209 211 216 216 211 206 199 196 196 195 195 195 196 198 200 203 208 214 221 232 250 247 239 257 263 252 244 241 237 232 223 212 211 212 207 204 206 206 208 211 212 211 213 213 214 218 222 228 233
266 271 269 268 273 270 271 269 254 252 260 257 250 252 260 258 253 250 248 262 276 254 237 242 269 254 240 235 232 230 231 231 225 219 215 207 203 204 203 206 208 205 202 200 200 198 196 194 194 196 198 200 205 211 217 225 235 247 239 236 253 263 260 249 243 239 233 223 213 211 212 212 215 217 212 206 203 201 201 204 204 205 211 221 229 233
264 266 264 265 269 265 265 264 251 245 257 258 249 249 259 258 248 243 246 256 282 270 231 228 269 266 243 236 231 230 231 230 227 221 215 208 203 202 200 200 203 203 200 198 197 196 194 193 195 197 199 202 208 214 220 228 236 246 241 236 247 261 263 253 246 243 235 223 213 211 212 214 216 210 196 192 193 193 196 198 196 199 210 222 231 235
262 264 266 268 266 261 257 256 248 239 249 253 247 251 260 257 245 240 246 247 256 275 257 242 264 275 249 237 230 230 231 230 229 223 216 210 204 200 197 198 203 203 197 193 192 192 192 194 196 199 202 206 212 217 226 235 244 250 241 234 245 259 262 255 249 245 236 221 211 209 211 208 200 193 190 192 193 195 198 194 192 201 212 223 232 239
265 266 267 268 259 249 249 254 250 238 241 247 250 262 256 251 249 242 243 246 254 275 267 250 252 252 251 241 229 228 230 229 228 223 218 212 205 200 196 197 203 202 195 191 190 189 192 195 198 201 205 210 215 223 233 242 247 245 232 231 244 255 261 256 249 245 231 216 208 208 209 200 191 191 191 190 191 195 195 191 199 209 215 223 233 241
265 267 268 271 261 246 241 248 248 235 236 244 255 270 254 247 255 244 234 241 250 265 260 253 247 235 264 247 230 225 226 227 226 223 219 214 207 201 197 196 200 200 196 194 192 191 194 198 200 204 208 214 221 229 235 237 236 232 225 231 243 251 260 255 248 242 223 209 206 206 204 197 194 196 194 192 193 193 192 198 211 214 216 225 233 239
269 269 266 268 267 258 245 237 229 224 229 241 252 264 261 252 248 234 221 232 247 262 252 251 249 244 278 248 232 226 224 226 226 225 222 217 211 203 198 199 200 200 197 196 195 195 199 203 207 210 213 218 223 226 227 226 226 225 224 231 241 249 256 251 244 236 215 205 205 203 200 196 196 198 196 193 190 191 199 209 216 215 219 228 234 239
276 272 266 269 272 264 249 235 225 216 218 231 241 253 263 251 234 224 220 225 230 261 249 248 249 243 245 242 231 226 227 228 228 227 224 217 210 202 200 202 202 201 201 200 201 201 204 207 209 211 214 217 221 222 223 223 222 223 224 230 238 245 252 247 240 229 210 202 203 201 198 195 196 198 194 190 190 197 206 213 216 219 223 230 236 241
283 278 276 276 274 261 247 238 227 219 220 228 238 247 249 217 196 202 205 216 221 246 248 245 241 237 246 252 239 224 224 225 226 229 226 219 210 201 200 202 201 203 205 207 209 210 210 211 210 212 215 217 219 223 228 224 220 223 226 229 234 243 250 245 236 224 207 200 201 199 195 193 195 196 191 190 197 205 212 217 220 223 226 233 239 243
294 293 290 269 261 245 231 228 220 215 217 224 234 241 233 174 160 205 194 201 233 242 242 234 229 238 255 261 246 226 220 221 222 224 224 221 213 204 201 201 201 203 206 210 212 214 215 215 215 217 219 220 221 227 231 223 219 224 227 227 231 240 249 244 233 220 205 199 199 197 194 192 194 195 193 197 206 215 223 225 225 227 232 238 241 245
284 299 323 281 257 222 211 212 208 209 215 221 230 234 225 213 202 180 171 209 214 220 222 213 215 226 215 260 254 235 224 220 220 216 212 216 214 209 206 205 206 207 208 211 214 216 219 219 221 223 223 223 225 229 230 222 220 224 225 224 228 238 250 244 230 217 204 198 197 195 193 193 193 193 196 204 214 226 235 233 229 232 239 243 245 248
247 272 307 286 244 207 205 206 202 208 223 229 224 217 212 213 220 198 245 257 243 167 179 188 204 222 200 232 258 237 228 222 220 217 209 208 210 212 212 211 212 214 214 216 218 219 221 221 223 226 226 226 227 227 226 223 222 223 222 222 226 236 250 244 230 215 201 194 195 194 192 191 190 193 200 210 221 235 241 237 233 238 243 246 249 252
242 287 305 228 220 207 200 207 213 220 232 228 207 205 206 211 221 239 292 279 259 147 161 171 206 234 248 249 185 216 229 222 218 218 214 210 209 212 215 215 216 219 221 222 224 224 225 224 225 227 227 227 226 223 222 223 222 220 219 221 227 236 246 245 230 211 196 191 193 192 189 189 191 197 205 213 226 236 239 238 238 241 245 248 251 255
274 300 303 220 208 194 194 213 226 228 233 226 204 202 202 211 225 230 288 311 63 142 210 172 191 223 233 247 191 197 219 225 221 220 217 216 215 216 217 217 217 221 224 227 229 229 229 228 228 228 228 227 223 219 221 222 219 216 217 221 229 238 244 246 229 206 193 191 194 192 190 191 196 203 208 216 228 234 236 239 242 245 247 248 251 255
292 314 304 217 196 188 200 223 230 225 225 226 216 203 194 199 223 221 233 306 89 137 234 180 167 192 201 220 230 199 206 221 226 224 220 217 216 216 218 218 218 219 222 225 228 229 230 230 230 228 227 227 222 217 219 220 214 212 216 221 229 236 239 239 222 202 193 193 194 194 193 195 200 207 211 219 231 236 239 242 244 248 248 248 252 255
279 313 315 271 214 200 206 216 229 230 211 210 211 204 203 203 208 213 227 275 11 139 155 155 166 145 179 219 241 229 216 219 225 226 225 220 213 210 212 214 216 216 218 222 224 226 229 231 231 229 227 226 219 215 220 219 211 210 215 220 227 232 232 226 212 199 193 194 195 196 197 199 204 210 215 225 235 239 241 243 246 249 249 251 256 257
258 267 295 326 218 198 201 205 227 229 184 178 177 189 199 202 214 247 247 257 287 201 148 123 169 72 50 207 228 234 234 234 232 228 224 221 216 209 206 207 209 211 215 219 222 224 226 228 228 225 222 220 216 216 220 215 208 208 214 217 222 228 226 218 207 196 193 195 197 199 200 202 207 214 222 232 238 241 241 244 250 252 253 257 262 264
252 258 290 323 329 180 185 189 199 165 161 168 166 182 197 202 220 269 251 251 315 317 262 79 150 56 35 25 221 223 232 237 243 238 222 214 213 210 206 204 203 207 212 217 221 222 223 222 219 216 215 215 215 215 214 209 205 207 210 212 218 225 222 215 206 197 195 198 199 200 202 205 212 219 227 236 240 242 243 247 253 257 259 261 267 275
251 269 295 323 349 190 179 166 146 134 157 172 150 160 197 202 224 252 82 339 340 351 15 57 154 52 23 13 314 211 219 229 241 241 220 206 206 207 205 204 204 207 210 216 221 222 220 215 210 210 212 213 212 210 208 204 202 206 206 207 215 221 217 211 205 199 198 199 200 202 205 209 216 224 233 238 241 243 244 249 256 261 263 262 266 276
227 272 302 335 54 189 185 154 140 144 165 176 113 81 177 194 219 235 290 332 334 351 26 55 154 272 4 3 2 125 202 210 223 228 211 201 202 202 201 201 201 203 208 214 217 218 217 210 207 210 211 209 207 204 202 200 202 205 204 203 211 214 207 204 201 198 199 200 201 204 208 214 222 230 236 237 240 244 246 252 262 266 265 266 269 272
222 279 310 24 94 51 132 138 132 156 177 178 87 79 166 195 208 223 324 342 340 350 7 39 182 342 7 3 10 34 170 191 199 207 201 198 200 200 202 203 202 201 204 209 209 211 213 209 207 209 207 204 203 200 199 203 206 206 202 202 211 214 207 202 200 198 198 200 203 207 213 221 227 232 234 236 241 246 249 257 268 271 267 273 280 276
256 283 312 52 118 103 170 141 112 153 179 182 76 97 177 193 192 210 343 349 354 328 339 333 294 357 16 17 21 55 156 181 188 198 200 200 201 202 204 206 206 204 203 205 205 207 211 208 206 205 202 202 201 198 202 209 210 206 201 200 211 217 213 208 207 206 205 206 210 215 221 226 228 231 232 236 243 248 254 262 270 271 268 276 283 281
254 262 278 59 108 129 129 117 105 147 174 170 65 99 179 181 172 21 344 314 308 315 327 338 335 355 15 19 22 68 131 166 189 201 205 206 205 204 205 205 204 202 201 202 204 206 207 204 203 203 202 202 200 200 207 211 209 205 199 199 212 220 217 212 212 215 215 216 217 219 222 225 227 231 231 237 245 249 257 265 268 268 268 275 281 280
226 213 166 88 108 120 112 100 99 140 174 177 73 78 168 168 157 360 340 319 337 326 332 350 346 356 13 15 15 34 73 110 182 203 209 211 209 207 206 205 201 198 197 197 200 203 201 198 199 199 201 202 201 203 206 205 203 201 198 201 214 221 219 214 214 215 215 216 215 215 220 225 227 230 233 239 247 252 259 265 266 265 266 272 277 278
167 148 133 118 131 126 105 95 97 124 168 172 84 82 154 158 125 352 356 24 21 5 347 355 0 7 13 15 15 21 32 37 48 201 205 207 204 200 200 201 198 193 187 186 193 197 196 194 195 197 200 201 200 200 199 196 197 198 197 203 211 215 219 218 217 217 215 213 212 214 221 226 227 231 236 242 249 254 261 264 262 261 264 268 270 275
137 137 115 127 146 133 105 100 101 111 139 137 99 100 158 166 52 352 359 28 28 18 0 7 27 27 20 20 17 16 17 11 6 186 190 191 188 188 190 192 190 184 177 177 184 193 194 193 193 195 198 199 199 198 195 194 196 197 198 202 205 210 219 221 221 223 222 220 219 220 224 226 228 232 237 243 249 255 260 260 258 258 263 266 267 271
101 121 113 127 139 132 114 117 118 113 122 129 121 119 158 179 338 347 356 26 33 25 12 23 43 39 35 34 23 17 11 357 2 129 172 181 179 180 183 185 182 175 170 171 177 188 193 194 194 195 197 200 202 200 197 195 195 196 200 202 203 211 220 221 221 223 224 224 224 226 228 228 229 234 239 244 249 254 257 256 255 257 262 265 265 268
50 79 121 137 135 129 125 124 122 122 124 135 141 120 108 128 337 343 8 30 28 19 16 24 31 30 33 39 32 25 15 359 17 107 153 175 179 180 182 183 177 168 165 167 171 179 187 192 195 198 200 203 203 198 193 191 191 195 200 201 205 214 219 219 221 221 221 222 223 226 229 230 233 238 244 247 249 252 254 252 251 256 261 263 261 262
47 61 106 136 131 130 139 139 133 126 119 141 149 107 87 94 19 3 19 25 20 20 20 18 20 22 27 33 31 29 25 9 24 81 130 160 174 180 182 179 172 166 164 166 168 173 181 188 193 197 201 203 199 193 189 187 188 193 198 200 201 209 215 217 219 220 221 222 224 227 231 234 239 245 249 249 249 251 250 247 248 253 257 259 260 261
43 54 85 116 119 135 148 145 136 120 90 159 155 107 97 103 53 28 33 32 31 34 23 12 19 26 31 35 28 23 27 21 24 60 112 142 156 165 171 173 171 167 163 159 159 164 172 180 189 196 202 202 197 191 188 186 187 192 196 197 197 202 209 211 213 216 219 222 227 232 236 240 243 248 249 248 249 250 247 242 244 250 255 258 259 260
40 49 64 89 110 138 148 142 128 95 27 153 141 113 103 96 60 45 45 39 38 36 23 22 35 32 33 38 34 32 32 21 25 74 118 140 144 148 159 169 174 173 168 164 163 162 163 169 180 193 199 198 194 190 189 189 191 195 198 197 197 202 208 209 211 214 217 223 229 234 240 244 246 248 247 245 247 247 242 239 244 250 254 257 258 258
39 43 46 70 107 132 142 136 118 114 137 138 131 119 106 82 46 55 58 42 37 31 24 34 49 39 35 38 38 47 44 11 24 122 142 154 147 140 149 162 173 178 178 178 177 174 171 172 178 187 192 192 191 190 190 192 195 200 203 201 203 209 213 215 218 221 224 229 234 239 245 247 246 247 245 242 243 242 239 241 245 249 252 254 253 252
35 46 49 64 89 107 105 98 103 108 100 127 139 131 117 80 43 51 59 44 33 22 17 28 48 46 37 38 48 62 71 131 145 128 145 151 139 128 134 145 154 168 178 184 183 180 177 176 177 182 187 191 193 193 194 197 200 203 206 207 211 214 216 218 222 226 230 234 239 246 250 247 244 245 242 238 238 238 238 241 242 244 248 249 246 242
49 56 65 65 73 94 104 97 95 92 55 149 156 140 127 105 59 48 58 55 26 11 9 23 45 47 37 38 60 79 108 134 125 126 137 133 121 116 124 136 145 154 167 179 183 183 182 182 183 186 189 194 197 199 203 206 209 214 218 220 223 225 226 227 228 231 236 241 245 249 248 244 243 241 236 232 233 233 234 236 238 241 245 244 239 233
67 65 78 78 73 84 103 96 89 88 58 176 169 143 112 95 68 55 65 47 9 2 8 22 38 41 34 34 60 83 96 76 104 126 135 124 113 114 117 124 136 146 159 173 181 188 194 196 196 195 195 198 200 203 208 212 216 223 228 230 232 232 234 236 236 237 244 249 252 252 246 243 239 232 227 226 226 225 226 230 234 240 241 238 232 227
70 72 78 83 83 72 78 84 91 111 99 101 126 115 92 80 68 61 61 1 352 1 17 27 33 33 26 24 52 80 84 41 82 115 124 118 117 121 120 122 129 135 145 159 171 184 195 200 201 200 200 203 206 209 212 214 217 221 222 221 223 226 232 239 242 245 250 253 252 249 244 239 231 222 219 220 219 218 221 226 232 237 235 230 226 224
61 79 86 99 110 80 74 78 87 124 125 100 87 85 83 80 65 61 66 346 345 2 21 30 38 36 24 25 47 66 60 47 77 102 112 118 126 130 129 132 137 140 146 154 162 173 184 191 197 200 201 203 206 210 214 217 218 221 221 216 215 222 232 240 244 247 250 250 247 243 238 232 224 217 215 216 215 216 219 224 230 232 228 224 222 222
53 86 99 113 126 78 73 95 102 125 138 120 98 88 84 81 57 45 46 351 352 16 29 32 43 43 30 33 49 56 46 66 95 104 110 124 135 141 144 147 150 154 161 168 175 182 190 197 204 209 209 212 215 217 221 224 223 224 226 221 217 222 231 237 240 242 243 242 238 236 233 228 222 218 216 214 214 216 219 223 227 226 221 219 220 219
56 92 99 112 131 88 77 99 99 119 149 141 130 117 95 79 37 6 21 10 12 25 27 31 47 51 41 43 59 71 64 76 105 123 125 131 140 147 152 157 162 167 175 185 191 195 200 206 213 218 219 222 224 225 226 225 222 223 226 226 223 222 223 227 231 232 233 233 231 230 229 223 217 214 211 209 211 215 217 220 223 220 215 214 216 216
64 89 90 103 125 90 56 63 76 144 163 157 149 145 134 117 354 298 347 41 33 32 36 50 62 59 54 59 76 88 77 74 100 126 137 144 150 155 160 162 164 169 177 186 192 195 195 198 206 211 214 217 218 218 217 214 211 216 222 223 219 214 214 219 222 222 224 226 227 229 227 217 208 204 203 204 208 213 215 217 220 218 213 214 216 219
69 89 89 98 118 104 68 56 74 143 161 168 174 165 159 163 220 293 349 35 56 62 66 71 70 66 68 69 68 75 80 80 96 116 132 147 152 154 157 159 159 162 169 177 183 186 187 194 203 205 207 208 206 205 204 199 192 195 202 206 205 205 210 216 216 214 218 222 224 224 217 205 199 197 199 201 205 209 212 216 219 218 215 215 218 223
78 86 91 97 108 109 90 71 82 132 145 160 177 170 162 170 189 360 28 71 88 83 75 74 75 74 75 66 60 68 76 81 91 101 126 154 157 149 148 152 153 153 158 162 166 172 181 194 202 202 202 203 201 200 199 194 188 187 188 192 197 202 207 209 208 206 207 212 216 211 202 197 194 193 195 198 202 206 212 216 218 217 216 219 223 230
89 85 92 101 109 109 101 96 107 126 148 162 161 156 161 161 144 115 93 92 94 89 82 81 81 79 75 62 58 77 87 89 93 86 104 149 154 139 137 144 144 139 138 138 135 136 146 164 183 193 197 201 203 201 196 192 191 190 186 186 193 196 196 199 203 202 201 206 211 203 194 193 194 192 191 193 197 204 213 218 221 222 226 232 238 242
90 100 96 98 108 108 106 109 113 127 170 175 157 147 153 148 131 123 117 109 107 102 96 90 85 80 73 69 83 103 97 91 90 91 105 131 134 122 121 133 137 133 130 129 127 120 117 130 153 174 184 187 191 193 192 190 190 189 187 187 189 188 190 198 205 204 203 210 218 205 191 192 194 190 186 188 196 206 216 220 223 230 238 245 249 250
86 113 112 108 110 108 106 116 127 123 139 152 153 159 159 146 130 128 130 128 120 111 104 101 94 84 78 84 102 106 96 89 91 93 100 115 122 120 123 131 136 134 129 128 128 122 115 118 128 141 156 165 171 177 182 185 188 189 191 190 187 186 195 205 208 206 206 213 217 212 207 206 202 191 182 183 194 206 214 217 221 230 241 249 254 255
70 77 84 88 91 90 90 98 106 101 100 101 96 105 173 161 137 129 126 114 104 104 106 108 105 96 89 93 101 100 92 92 99 100 101 107 114 121 126 130 137 138 126 119 122 122 119 118 115 115 124 141 154 164 172 176 182 187 192 192 189 191 200 207 212 215 217 218 219 221 219 215 206 192 182 185 197 212 224 233 241 247 253 260 264 264
59 61 63 66 68 67 70 80 88 91 95 93 86 87 135 155 131 124 121 103 95 97 100 103 109 109 103 102 106 104 101 105 111 113 115 117 125 134 131 128 134 141 133 127 128 125 122 118 111 108 112 123 134 142 150 160 172 184 191 197 202 206 210 214 219 221 220 216 216 221 223 219 207 194 191 200 217 238 257 270 276 280 280 278 276 271
Height
3022 3021 3019 3019 3021 3022 3023 3023 3022 3023 3023 3023 3023 3022 3022 3021 3020 3021 3022 3024 3026 3024 3021 3023 3024 3024 3025 3027 3029 3033 3037 3039 3040 3043 3045 3048 3053 3056 3060 3063 3067 3070 3075 3078 3080 3084 3088 3093 3098 3102 3105 3107 3109 3111 3112 3114 3116 3118 3119 3120 3121 3123 3124 3125 3127 3128 3130 3130 3131 3134 3136 3138 3141 3142 3144 3146 3148 3150 3152 3153 3154 3155 3156 3156 3157 3157
3019 3017 3016 3018 3019 3020 3021 3021 3021 3021 3021 3021 3021 3021 3020 3020 3018 3019 3020 3022 3024 3022 3019 3021 3022 3021 3022 3023 3025 3029 3031 3033 3035 3039 3041 3045 3049 3053 3057 3061 3064 3069 3072 3073 3076 3081 3085 3090 3095 3098 3101 3104 3106 3108 3110 3112 3114 3116 3117 3118 3119 3121 3122 3124 3125 3126 3128 3129 3130 3133 3135 3137 3139 3141 3143 3145 3147 3149 3150 3151 3152 3153 3154 3154 3155 3156
3016 3013 3014 3017 3018 3018 3018 3018 3019 3019 3019 3019 3020 3019 3018 3018 3018 3018 3018 3020 3022 3020 3017 3018 3018 3017 3019 3020 3021 3023 3025 3027 3032 3036 3039 3042 3046 3050 3054 3058 3063 3066 3067 3069 3073 3078 3083 3088 3092 3095 3098 3101 3103 3106 3108 3110 3112 3114 3116 3117 3118 3119 3121 3122 3123 3124 3126 3127 3129 3131 3134 3136 3138 3140 3142 3144 3146 3147 3148 3149 3150 3151 3152 3153 3153 3154
3012 3010 3014 3016 3016 3016 3015 3016 3016 3016 3016 3017 3018 3017 3016 3017 3018 3016 3016 3018 3019 3016 3015 3016 3016 3014 3016 3017 3016 3018 3020 3024 3029 3033 3036 3040 3043 3047 3052 3057 3060 3062 3064 3067 3072 3077 3081 3085 3089 3092 3096 3098 3100 3103 3106 3108 3111 3113 3114 3115 3116 3118 3119 3120 3121 3122 3123 3125 3127 3129 3131 3133 3136 3138 3140 3142 3144 3145 3146 3147 3149 3150 3151 3151 3152 3152
3008 3009 3013 3013 3013 3013 3013 3013 3014 3013 3013 3014 3015 3015 3014 3015 3016 3015 3016 3016 3014 3013 3013 3016 3014 3010 3012 3013 3011 3013 3018 3020 3025 3030 3033 3036 3040 3045 3049 3054 3058 3059 3062 3066 3070 3074 3079 3082 3086 3090 3093 3095 3098 3102 3104 3107 3109 3111 3113 3114 3115 3116 3117 3118 3119 3120 3121 3122 3125 3127 3129 3131 3134 3136 3139 3141 3142 3143 3145 3146 3147 3148 3149 3149 3149 3149
3005 3008 3010 3009 3010 3010 3010 3010 3011 3011 3011 3011 3011 3011 3012 3013 3014 3015 3015 3015 3013 3011 3012 3016 3013 3007 3008 3009 3007 3011 3015 3017 3021 3026 3028 3032 3037 3041 3045 3050 3054 3057 3060 3064 3068 3073 3077 3081 3085 3088 3090 3093 3097 3100 3103 3106 3108 3110 3111 3112 3113 3115 3116 3117 3118 3118 3119 3121 3123 3125 3128 3131 3133 3136 3138 3140 3141 3142 3144 3145 3146 3147 3147 3147 3147 3148
3002 3004 3006 3006 3007 3007 3006 3006 3006 3009 3009 3008 3008 3009 3011 3011 3011 3012 3013 3014 3013 3010 3010 3013 3011 3007 3004 3004 3004 3008 3012 3013 3018 3022 3025 3029 3033 3038 3042 3046 3051 3054 3057 3061 3066 3071 3075 3079 3083 3085 3088 3092 3095 3099 3101 3104 3106 3107 3109 3111 3112 3113 3114 3115 3116 3116 3117 3119 3122 3124 3127 3130 3133 3136 3137 3139 3140 3141 3142 3144 3145 3145 3146 3146 3146 3146
2999 3001 3002 3003 3003 3002 3002 3001 3002 3006 3007 3005 3005 3008 3009 3008 3009 3009 3011 3012 3011 3010 3008 3007 3009 3008 3001 2998 3001 3006 3009 3011 3015 3019 3022 3026 3030 3035 3040 3044 3048 3052 3056 3059 3063 3068 3073 3077 3080 3084 3087 3091 3094 3097 3099 3101 3103 3105 3107 3109 3111 3112 3113 3113 3114 3115 3116 3118 3120 3123 3126 3130 3133 3135 3136 3137 3139 3140 3141 3142 3143 3144 3144 3144 3144 3145
2997 2999 2999 2999 2999 2998 2998 2998 3001 3003 3004 3003 3005 3007 3006 3006 3007 3007 3009 3010 3010 3011 3006 3002 3007 3006 2997 2995 3000 3003 3005 3007 3010 3014 3019 3024 3028 3033 3037 3042 3046 3051 3055 3058 3062 3067 3071 3075 3079 3083 3086 3089 3092 3095 3097 3099 3101 3104 3105 3107 3109 3110 3111 3112 3112 3113 3114 3116 3119 3122 3126 3129 3132 3133 3135 3136 3138 3139 3140 3141 3142 3142 3142 3143 3143 3143
2995 2996 2996 2996 2995 2995 2996 2997 2999 3000 3001 3003 3005 3005 3004 3005 3005 3006 3007 3007 3010 3010 3003 3000 3004 3003 2995 2993 2997 3000 3001 3003 3006 3012 3017 3022 3027 3032 3036 3040 3044 3049 3053 3057 3062 3066 3070 3074 3078 3081 3085 3087 3090 3092 3095 3097 3099 3102 3104 3105 3107 3108 3109 3110 3111 3112 3113 3115 3118 3121 3125 3128 3130 3132 3134 3135 3137 3138 3139 3139 3140 3140 3141 3141 3141 3142
2993 2994 2994 2992 2992 2993 2994 2995 2997 2998 2999 3002 3003 3003 3002 3003 3003 3004 3004 3006 3009 3006 2999 2998 3001 3003 2997 2990 2992 2996 2998 3001 3006 3011 3016 3021 3026 3031 3035 3039 3043 3047 3052 3056 3060 3064 3069 3073 3076 3079 3082 3084 3087 3090 3092 3095 3097 3100 3102 3104 3105 3107 3108 3108 3109 3110 3112 3115 3117 3121 3124 3127 3129 3131 3132 3134 3135 3137 3138 3138 3138 3139 3140 3140 3140 3140
2991 2991 2990 2988 2989 2991 2992 2993 2995 2996 2998 3000 3001 3001 3002 3001 3002 3003 3003 3005 3007 3001 2995 2996 2999 3001 2996 2988 2989 2995 2998 3002 3006 3009 3014 3019 3024 3029 3033 3037 3041 3046 3050 3054 3058 3062 3066 3069 3072 3075 3078 3081 3084 3087 3090 3093 3095 3098 3100 3102 3104 3105 3106 3107 3108 3109 3111 3114 3117 3120 3123 3126 3128 3129 3131 3133 3134 3135 3136 3137 3137 3137 3138 3138 3138 3138
2987 2987 2986 2986 2986 2988 2990 2991 2992 2994 2996 2997 2998 3000 3000 3000 3000 3001 3001 3003 3002 2997 2994 2996 2997 2997 2991 2987 2989 2993 2996 3001 3005 3008 3012 3017 3023 3027 3031 3035 3039 3044 3048 3052 3056 3060 3063 3066 3069 3072 3075 3077 3081 3084 3088 3090 3093 3096 3099 3101 3102 3103 3104 3105 3106 3108 3111 3113 3116 3119 3122 3124 3126 3128 3130 3131 3132 3134 3134 3135 3135 3136 3136 3136 3136 3136
2985 2983 2984 2984 2984 2985 2986 2987 2988 2990 2993 2995 2996 2997 2998 2997 2998 2998 2998 2999 2998 2994 2992 2995 2996 2993 2989 2987 2989 2991 2995 2999 3003 3007 3011 3016 3021 3026 3029 3034 3038 3042 3046 3049 3053 3057 3060 3063 3067 3070 3072 3075 3079 3082 3085 3088 3091 3094 3097 3099 3100 3101 3103 3104 3105 3107 3110 3112 3115 3117 3120 3122 3124 3126 3128 3130 3131 3131 3132 3133 3133 3134 3134 3134 3134 3134
2985 2983 2982 2982 2982 2982 2983 2984 2986 2989 2991 2992 2993 2994 2995 2993 2993 2993 2995 2996 2994 2990 2990 2994 2994 2990 2988 2988 2989 2991 2995 2998 3002 3007 3010 3014 3019 3024 3028 3032 3035 3039 3043 3047 3050 3054 3057 3061 3065 3067 3070 3074 3077 3081 3083 3086 3090 3092 3095 3097 3098 3100 3101 3102 3104 3106 3108 3111 3114 3116 3118 3120 3123 3125 3127 3128 3129 3129 3130 3131 3131 3132 3132 3132 3132 3131
2984 2983 2981 2981 2981 2982 2982 2983 2986 2989 2989 2990 2991 2992 2992 2991 2990 2990 2991 2992 2989 2987 2988 2991 2990 2987 2987 2988 2989 2991 2994 2997 3001 3005 3009 3013 3017 3021 3025 3028 3032 3036 3040 3044 3047 3051 3055 3059 3062 3065 3068 3072 3076 3079 3082 3085 3088 3091 3093 3095 3097 3098 3100 3101 3103 3104 3107 3110 3112 3114 3116 3119 3121 3123 3124 3126 3127 3127 3128 3129 3129 3130 3130 3130 3129 3129
2983 2982 2981 2981 2981 2981 2982 2984 2986 2987 2987 2988 2988 2989 2989 2991 2991 2990 2990 2989 2987 2986 2986 2988 2988 2987 2987 2988 2989 2991 2994 2996 3000 3003 3007 3011 3015 3018 3022 3025 3029 3033 3037 3041 3045 3049 3052 3056 3059 3062 3066 3070 3073 3077 3080 3083 3086 3089 3092 3093 3095 3096 3098 3099 3101 3103 3105 3108 3110 3112 3115 3117 3119 3121 3122 3124 3125 3125 3126 3126 3127 3127 3127 3127 3127 3128
2983 2981 2980 2981 2981 2981 2983 2984 2985 2986 2986 2987 2988 2989 2991 2993 2992 2992 2992 2988 2984 2985 2986 2986 2986 2987 2988 2988 2988 2991 2993 2996 2999 3001 3005 3009 3012 3015 3019 3023 3027 3031 3035 3039 3042 3046 3049 3053 3056 3059 3063 3068 3071 3075 3079 3082 3085 3087 3090 3091 3093 3094 3096 3098 3099 3101 3104 3106 3109 3111 3113 3116 3117 3119 3120 3122 3123 3123 3124 3124 3124 3125 3125 3125 3126 3126
2983 2982 2980 2980 2981 2981 2982 2983 2983 2984 2985 2986 2988 2989 2990 2991 2991 2993 2993 2987 2984 2985 2985 2985 2985 2987 2988 2988 2987 2989 2991 2994 2997 2999 3002 3005 3008 3012 3016 3020 3024 3028 3033 3036 3039 3042 3046 3049 3053 3057 3061 3065 3069 3073 3077 3080 3083 3085 3087 3089 3090 3092 3094 3096 3097 3099 3102 3104 3107 3109 3112 3114 3115 3117 3118 3119 3120 3121 3122 3122 3122 3122 3123 3123 3123 3124
2984 2983 2981 2980 2981 2981 2981 2982 2983 2983 2984 2985 2988 2988 2987 2988 2989 2990 2989 2986 2984 2984 2984 2984 2984 2986 2987 2987 2987 2989 2990 2992 2995 2997 3000 3003 3006 3009 3014 3018 3021 3025 3029 3032 3035 3039 3042 3046 3049 3054 3059 3063 3067 3071 3074 3077 3080 3082 3084 3086 3088 3090 3092 3093 3095 3097 3100 3102 3105 3107 3109 3111 3113 3114 3116 3117 3118 3119 3120 3120 3120 3120 3121 3121 3121 3123
2984 2983 2982 2980 2980 2981 2981 2982 2982 2982 2983 2984 2985 2986 2986 2987 2989 2988 2986 2985 2985 2985 2985 2984 2985 2986 2987 2986 2987 2988 2990 2991 2993 2995 2998 3001 3004 3008 3012 3016 3020 3024 3027 3029 3033 3036 3040 3043 3047 3052 3057 3061 3065 3069 3072 3074 3077 3079 3081 3084 3086 3088 3089 3091 3093 3095 3098 3100 3103 3105 3107 3109 3111 3112 3114 3115 3116 3117 3117 3118 3118 3119 3119 3120 3120 3123
2983 2983 2982 2980 2980 2981 2981 2982 2982 2981 2982 2983 2983 2984 2985 2987 2989 2988 2986 2985 2985 2985 2985 2985 2986 2987 2986 2986 2987 2988 2989 2990 2990 2993 2996 2998 3002 3005 3009 3014 3018 3022 3025 3028 3031 3034 3037 3040 3044 3049 3054 3058 3062 3066 3069 3072 3074 3076 3079 3082 3084 3086 3087 3089 3091 3093 3096 3098 3101 3103 3105 3107 3109 3110 3112 3113 3114 3115 3115 3116 3116 3117 3118 3118 3120 3122
2982 2982 2981 2980 2981 2981 2981 2982 2981 2981 2982 2983 2984 2985 2986 2987 2988 2988 2986 2986 2985 2984 2984 2984 2986 2987 2986 2986 2986 2986 2987 2988 2989 2990 2993 2996 2999 3003 3007 3012 3016 3020 3023 3026 3029 3032 3035 3038 3043 3047 3052 3056 3060 3064 3067 3069 3072 3074 3077 3080 3082 3083 3085 3087 3089 3091 3094 3096 3099 3101 3103 3105 3106 3108 3110 3111 3112 3113 3114 3114 3115 3116 3116 3117 3120 3122
2982 2982 2981 2981 2981 2982 2981 2982 2982 2981 2983 2984 2984 2984 2985 2987 2987 2987 2987 2986 2985 2984 2984 2984 2986 2987 2986 2986 2985 2985 2985 2986 2987 2989 2991 2994 2998 3001 3005 3009 3013 3016 3020 3023 3027 3030 3033 3037 3041 3045 3050 3054 3058 3062 3064 3067 3069 3072 3075 3078 3080 3082 3083 3085 3087 3090 3092 3094 3097 3099 3101 3103 3105 3107 3108 3109 3110 3111 3112 3112 3113 3114 3114 3115 3119 3119
2983 2983 2982 2982 2982 2983 2984 2983 2983 2983 2984 2985 2984 2984 2985 2986 2987 2987 2987 2986 2986 2985 2984 2985 2987 2987 2987 2985 2985 2984 2984 2985 2986 2988 2990 2993 2997 3000 3004 3007 3010 3013 3016 3020 3024 3027 3030 3035 3039 3044 3048 3053 3056 3059 3062 3065 3067 3070 3073 3076 3078 3080 3082 3084 3086 3088 3090 3093 3095 3097 3099 3101 3103 3105 3106 3108 3109 3109 3110 3111 3111 3112 3112 3113 3115 3115
2983 2983 2983 2982 2981 2983 2985 2984 2983 2983 2984 2985 2985 2985 2985 2986 2987 2988 2988 2987 2986 2985 2985 2986 2986 2986 2985 2984 2983 2983 2983 2984 2985 2987 2989 2992 2995 2998 3001 3004 3007 3010 3013 3017 3021 3024 3028 3033 3038 3043 3047 3051 3054 3057 3060 3063 3065 3069 3072 3075 3077 3079 3081 3083 3085 3087 3089 3091 3093 3096 3098 3099 3101 3103 3105 3106 3107 3108 3108 3109 3110 3110 3110 3111 3111 3110
2983 2983 2983 2982 2981 2982 2983 2982 2982 2983 2983 2985 2985 2985 2985 2986 2988 2989 2989 2988 2987 2986 2985 2985 2984 2983 2981 2980 2980 2980 2981 2983 2984 2986 2988 2991 2993 2996 2999 3002 3005 3008 3012 3015 3019 3023 3027 3032 3037 3041 3045 3049 3053 3055 3058 3061 3064 3067 3071 3073 3076 3078 3080 3081 3083 3085 3088 3090 3092 3094 3096 3098 3100 3102 3103 3104 3105 3106 3107 3107 3107 3107 3108 3110 3108 3107
2983 2983 2983 2983 2982 2982 2982 2982 2982 2983 2983 2984 2985 2985 2985 2987 2989 2989 2989 2989 2988 2987 2986 2985 2984 2983 2981 2980 2979 2979 2980 2982 2983 2985 2987 2989 2991 2994 2997 3000 3004 3007 3010 3013 3017 3021 3026 3031 3036 3040 3044 3048 3051 3053 3056 3059 3062 3066 3070 3072 3074 3076 3079 3080 3082 3084 3086 3088 3090 3093 3095 3097 3098 3100 3101 3102 3103 3104 3105 3105 3105 3105 3106 3108 3106 3104
2983 2983 2983 2983 2983 2983 2983 2982 2982 2983 2984 2985 2986 2986 2987 2988 2989 2989 2989 2989 2988 2988 2987 2985 2984 2984 2982 2981 2981 2980 2980 2981 2982 2983 2984 2987 2989 2993 2996 3000 3003 3006 3009 3011 3016 3021 3026 3030 3035 3039 3043 3046 3049 3052 3054 3058 3061 3065 3068 3071 3073 3075 3077 3079 3081 3083 3085 3087 3089 3091 3093 3095 3097 3098 3099 3100 3102 3102 3103 3103 3103 3103 3104 3105 3104 3103
2983 2983 2983 2983 2983 2984 2984 2983 2983 2984 2985 2987 2987 2988 2989 2989 2989 2990 2990 2989 2989 2988 2987 2986 2985 2984 2984 2983 2982 2981 2981 2981 2981 2981 2983 2985 2989 2992 2996 3000 3003 3006 3008 3011 3016 3021 3026 3030 3034 3038 3042 3045 3048 3051 3054 3057 3060 3064 3067 3070 3072 3074 3076 3078 3080 3082 3084 3086 3088 3090 3092 3093 3095 3096 3097 3099 3100 3100 3100 3100 3100 3100 3102 3103 3102 3101
2983 2983 2983 2983 2983 2985 2985 2984 2985 2985 2986 2988 2989 2989 2990 2990 2990 2990 2991 2990 2989 2988 2988 2987 2985 2985 2984 2983 2983 2982 2982 2981 2981 2981 2982 2986 2989 2993 2996 2999 3002 3006 3008 3011 3016 3020 3025 3029 3033 3037 3041 3044 3047 3051 3054 3057 3060 3063 3066 3069 3071 3073 3075 3077 3079 3080 3082 3084 3086 3088 3090 3092 3093 3094 3096 3097 3098 3098 3098 3098 3098 3098 3099 3101 3101 3100
2984 2983 2983 2983 2983 2985 2985 2985 2986 2986 2986 2988 2990 2990 2991 2992 2992 2991 2991 2990 2990 2989 2988 2986 2985 2984 2984 2983 2983 2983 2983 2982 2981 2981 2983 2986 2990 2993 2997 2999 3002 3005 3009 3012 3016 3020 3024 3028 3032 3036 3040 3043 3046 3049 3052 3055 3058 3062 3065 3068 3070 3071 3073 3075 3077 3079 3081 3082 3084 3086 3088 3090 3092 3093 3094 3094 3095 3096 3096 3096 3096 3096 3097 3098 3099 3098
2984 2984 2984 2984 2984 2985 2985 2985 2986 2986 2987 2989 2990 2990 2991 2993 2993 2992 2991 2991 2991 2990 2989 2987 2987 2986 2985 2984 2983 2983 2983 2983 2983 2983 2984 2987 2991 2994 2997 3000 3003 3006 3009 3012 3016 3019 3024 3027 3031 3034 3037 3041 3044 3047 3050 3053 3056 3059 3063 3065 3068 3070 3072 3074 3075 3077 3079 3080 3082 3084 3086 3088 3090 3091 3091 3092 3093 3093 3094 3094 3094 3094 3095 3095 3096 3096
2984 2984 2984 2984 2984 2985 2986 2986 2987 2988 2989 2989 2990 2991 2992 2993 2993 2993 2992 2992 2992 2992 2991 2990 2989 2987 2986 2985 2984 2983 2983 2983 2984 2985 2986 2989 2992 2995 2998 3001 3004 3007 3010 3013 3016 3020 3023 3027 3030 3033 3037 3040 3043 3046 3049 3052 3055 3057 3060 3063 3065 3068 3069 3071 3073 3075 3077 3078 3080 3082 3084 3086 3088 3089 3089 3090 3090 3091 3092 3092 3092 3092 3093 3093 3093 3094
2985 2985 2985 2984 2985 2986 2987 2988 2989 2991 2991 2990 2990 2991 2992 2993 2994 2994 2993 2993 2993 2993 2993 2992 2991 2989 2987 2986 2985 2985 2984 2985 2986 2987 2988 2990 2993 2995 2998 3001 3005 3007 3010 3013 3017 3020 3023 3027 3030 3033 3036 3039 3043 3046 3049 3052 3054 3057 3059 3061 3063 3065 3067 3068 3070 3072 3073 3075 3077 3079 3082 3084 3085 3086 3087 3088 3088 3089 3089 3090 3090 3091 3091 3091 3091 3091
2986 2986 2985 2985 2986 2987 2987 2988 2989 2991 2991 2990 2991 2992 2993 2994 2994 2994 2994 2995 2995 2995 2995 2994 2993 2991 2990 2988 2988 2987 2987 2988 2989 2989 2991 2992 2994 2996 2999 3002 3005 3008 3011 3014 3017 3020 3023 3027 3029 3032 3035 3038 3041 3044 3047 3050 3053 3055 3057 3060 3062 3063 3064 3065 3067 3069 3070 3072 3074 3077 3079 3081 3082 3083 3084 3085 3086 3087 3087 3088 3089 3089 3089 3089 3089 3090
2987 2987 2986 2986 2986 2987 2988 2988 2989 2990 2991 2991 2992 2992 2993 2994 2994 2994 2994 2996 2997 2997 2996 2996 2995 2994 2992 2991 2990 2990 2991 2991 2991 2993 2994 2995 2996 2998 3000 3002 3004 3007 3010 3014 3017 3020 3023 3026 3029 3032 3035 3038 3041 3043 3046 3048 3050 3053 3055 3058 3059 3060 3061 3062 3064 3066 3067 3069 3071 3074 3076 3077 3079 3080 3081 3083 3084 3084 3085 3086 3087 3087 3087 3087 3087 3088
2988 2987 2987 2986 2987 2988 2989 2989 2990 2992 2992 2993 2993 2993 2994 2995 2995 2995 2994 2996 2997 2997 2998 2998 2997 2996 2995 2994 2993 2993 2993 2994 2995 2996 2997 2997 2999 3001 3002 3004 3006 3008 3011 3014 3017 3020 3023 3026 3028 3031 3034 3037 3040 3042 3045 3047 3049 3051 3053 3055 3057 3058 3060 3061 3062 3063 3065 3067 3069 3071 3072 3074 3075 3077 3078 3080 3081 3082 3083 3084 3085 3085 3085 3085 3086 3086
2988 2988 2987 2987 2988 2989 2990 2990 2991 2993 2994 2994 2994 2995 2995 2996 2996 2995 2996 2997 2997 2998 2998 2998 2998 2997 2996 2996 2995 2994 2996 2998 2998 2998 2999 3000 3001 3003 3004 3006 3008 3010 3012 3015 3018 3020 3023 3026 3028 3031 3033 3036 3039 3041 3043 3046 3048 3050 3051 3053 3055 3057 3058 3060 3060 3061 3062 3064 3066 3067 3069 3070 3072 3073 3075 3076 3078 3079 3081 3082 3083 3083 3084 3084 3084 3085
2988 2988 2988 2989 2990 2991 2991 2991 2992 2993 2994 2995 2995 2995 2996 2997 2997 2997 2999 3000 3000 2999 2999 2999 2998 2998 2997 2998 2996 2996 2999 3001 3001 3001 3002 3003 3004 3005 3007 3008 3010 3011 3013 3016 3018 3021 3023 3026 3028 3031 3033 3036 3038 3040 3042 3044 3045 3047 3049 3050 3052 3054 3056 3057 3058 3059 3060 3061 3063 3064 3066 3067 3069 3070 3072 3073 3075 3077 3078 3080 3081 3082 3083 3083 3083 3084
2989 2990 2990 2991 2992 2992 2992 2993 2993 2994 2995 2996 2995 2995 2997 2998 2998 2999 3002 3002 3002 3002 3001 3001 3000 3000 3000 2999 2998 2999 3003 3005 3004 3004 3005 3005 3005 3007 3008 3010 3011 3013 3015 3017 3019 3021 3023 3025 3027 3029 3032 3034 3037 3038 3040 3042 3044 3045 3046 3048 3050 3052 3054 3055 3056 3056 3057 3058 3060 3061 3062 3064 3065 3067 3069 3071 3073 3075 3076 3078 3080 3081 3081 3081 3082 3083
2991 2991 2992 2992 2993 2993 2994 2994 2994 2995 2996 2997 2997 2997 2998 2999 3000 3001 3003 3003 3003 3003 3003 3002 3002 3002 3002 3002 3002 3004 3006 3006 3005 3006 3006 3006 3007 3008 3009 3011 3012 3014 3015 3017 3019 3021 3023 3025 3027 3028 3030 3032 3034 3036 3038 3039 3041 3043 3045 3046 3048 3049 3051 3052 3053 3054 3054 3055 3056 3057 3059 3061 3063 3065 3067 3069 3071 3073 3075 3076 3078 3079 3080 3080 3081 3082
2991 2992 2993 2994 2994 2994 2995 2995 2996 2997 2997 2998 2998 2999 3000 3001 3001 3003 3004 3004 3004 3004 3004 3004 3004 3004 3003 3004 3005 3006 3007 3006 3006 3007 3007 3007 3008 3009 3009 3011 3012 3013 3015 3017 3018 3020 3022 3024 3026 3027 3029 3030 3032 3033 3035 3036 3037 3039 3042 3044 3045 3046 3048 3049 3051 3051 3052 3053 3053 3054 3055 3058 3061 3063 3065 3068 3069 3071 3072 3074 3076 3077 3078 3079 3079 3080
2993 2993 2994 2995 2996 2996 2996 2997 2998 2998 2998 2999 2999 3000 3001 3002 3003 3003 3004 3004 3004 3005 3005 3005 3005 3005 3005 3005 3006 3006 3006 3007 3007 3007 3008 3008 3009 3009 3010 3011 3012 3013 3015 3016 3018 3019 3021 3022 3024 3026 3027 3029 3030 3031 3032 3034 3036 3038 3040 3041 3042 3044 3046 3048 3049 3049 3049 3050 3050 3051 3053 3056 3058 3060 3063 3065 3067 3068 3070 3072 3074 3075 3076 3077 3078 3079
2994 2995 2996 2996 2997 2998 2999 2999 2999 2998 2999 3000 3000 3001 3002 3003 3004 3004 3004 3005 3006 3006 3006 3005 3005 3006 3006 3006 3007 3007 3007 3007 3007 3007 3008 3009 3009 3009 3010 3011 3012 3013 3015 3016 3017 3019 3020 3022 3023 3024 3026 3027 3028 3030 3031 3032 3035 3037 3038 3039 3041 3043 3045 3046 3047 3048 3048 3049 3049 3050 3051 3053 3056 3058 3060 3063 3064 3066 3068 3070 3072 3073 3074 3075 3077 3078
2996 2997 2997 2998 2999 3000 3000 3000 3000 3000 3000 3001 3001 3002 3003 3004 3004 3005 3005 3006 3007 3006 3006 3006 3006 3006 3006 3007 3007 3007 3007 3006 3006 3006 3007 3009 3009 3009 3010 3011 3012 3013 3015 3016 3017 3018 3020 3021 3023 3024 3025 3027 3028 3029 3030 3031 3033 3035 3037 3039 3040 3042 3043 3045 3046 3046 3047 3047 3047 3048 3050 3052 3054 3056 3058 3061 3062 3064 3066 3068 3070 3071 3072 3074 3075 3076
2998 2998 2999 3000 3000 3001 3001 3001 3001 3001 3002 3002 3003 3003 3004 3004 3005 3005 3006 3008 3008 3007 3007 3006 3006 3006 3007 3007 3007 3007 3006 3006 3006 3006 3007 3009 3010 3010 3010 3011 3012 3014 3015 3016 3018 3019 3020 3021 3023 3024 3025 3026 3027 3028 3030 3031 3033 3034 3035 3037 3039 3041 3042 3044 3044 3044 3044 3046 3047 3047 3049 3050 3052 3055 3057 3059 3061 3062 3065 3067 3068 3069 3070 3072 3073 3074
2999 3000 3000 3000 3001 3001 3002 3003 3003 3003 3003 3003 3004 3004 3005 3005 3006 3006 3007 3008 3008 3008 3007 3007 3007 3007 3007 3008 3008 3007 3007 3007 3007 3007 3008 3009 3011 3012 3013 3013 3013 3014 3016 3017 3018 3019 3020 3021 3023 3024 3025 3026 3027 3028 3029 3031 3032 3034 3035 3036 3037 3039 3041 3042 3042 3043 3045 3047 3049 3050 3050 3051 3053 3054 3055 3057 3059 3061 3063 3065 3066 3067 3068 3070 3071 3072
3001 3001 3001 3002 3002 3002 3003 3004 3004 3004 3004 3004 3005 3005 3006 3006 3007 3007 3007 3008 3008 3008 3008 3008 3007 3008 3008 3009 3009 3009 3009 3009 3010 3010 3010 3011 3013 3014 3015 3014 3014 3015 3016 3017 3018 3019 3020 3022 3023 3024 3025 3026 3027 3028 3030 3031 3032 3034 3035 3036 3038 3039 3040 3041 3043 3045 3046 3047 3048 3050 3052 3053 3054 3053 3054 3055 3057 3060 3062 3063 3065 3065 3067 3068 3069 3069
3003 3004 3004 3003 3003 3004 3005 3006 3006 3005 3005 3005 3006 3007 3007 3008 3008 3008 3008 3009 3009 3009 3009 3009 3008 3009 3009 3010 3011 3012 3013 3012 3013 3013 3013 3014 3015 3016 3017 3017 3017 3017 3018 3019 3019 3020 3021 3023 3024 3025 3026 3027 3028 3029 3030 3032 3033 3034 3036 3037 3038 3039 3040 3042 3044 3045 3045 3046 3047 3049 3051 3052 3053 3053 3053 3054 3056 3059 3060 3062 3063 3064 3065 3065 3066 3067
3007 3007 3006 3005 3005 3006 3006 3007 3007 3007 3006 3006 3006 3007 3008 3008 3009 3009 3010 3011 3011 3011 3011 3011 3010 3010 3010 3011 3012 3014 3015 3015 3015 3015 3015 3015 3016 3017 3018 3019 3019 3019 3020 3020 3021 3022 3023 3024 3025 3026 3027 3028 3029 3030 3031 3033 3034 3035 3036 3038 3039 3040 3041 3042 3043 3044 3045 3046 3047 3048 3050 3050 3051 3052 3052 3054 3055 3057 3059 3060 3061 3062 3063 3064 3064 3064